sat.trackr.live / text

‹ back to catalog

STARLINK-37273

NORAD 68723 · 2026-081AA

PAYLOAD ACTIVE UNKNOWN

§ Identity

Operator
Country
US
Launch date
2026-04-14
Launch site
AFETR
Launch vehicle
Mass (kg)
RCS (m²)

Purposes: comms

External: N2YO · Heavens-Above · Gunter

§ Orbital elements

Epoch: 2026-05-25T00:37:51.379968Z

Period
92.94 min
Inclination
53.1598°
Eccentricity
0.0000973
Mean motion
15.49337053 rev/d
Perigee alt
418.0 km
Apogee alt
419.3 km
Semi-major
6,796.8 km
B*
3.8391e-4
RAAN
39.9909°
Arg perigee
71.4164°
Mean anomaly
288.6950°
Rev number
642

§ Raw data

STARLINK-372731 68723U 26081AA  26145.02628912  .00020982  00000+0  38391-3 0  99982 68723  53.1598  39.9909 0000973  71.4164 288.6950 15.49337053  6420

JSON: /api/v1/satellites/68723 · /tle

For live sub-satellite position, see the globe view (requires WebGL).

§ Visibility from observer

Set your observer location to see the next 7 days of passes ≥ 10°. The values pass through the URL so the page stays shareable.

No JS? Fill the form by hand. The geolocation button needs JavaScript.